This demonstration page uses our WeatherBlox Daily Observations layout. Learn more.

40.92945, -100.16068

Hourly Observations for January 1, 2017

Temp ( °F °C ) Dew Point ( °F °C ) Humidity (%) Winds ( mph kmh ) Pressure ( in mb ) Visibility ( mi km ) Precip ( " mm )
12:15 am 00:15 Clear 32 -0.1 20 -6.8 61 61 SSW 8 13 29.91 1013 10 16.0934 0 0
12:35 am 00:35 Clear 31 -0.6 20 -6.8 63 63 SSW 8 13 29.91 1013 10 16.0934 0 0
12:55 am 00:55 Clear 30 -1.1 20 -6.9 65 65 SSW 8 13 29.94 1014 10 16.0934 0 0
1:15 am 01:15 Clear 29 -1.5 19 -7 67 67 SSW 8 13 29.94 1014 10 16.0934 0 0
1:35 am 01:35 Clear 28 -2.1 19 -7.2 68 68 Calm 29.94 1014 10 16.0934 0 0
1:55 am 01:55 Clear 27 -2.6 19 -7.1 72 72 SSE 3 6 29.94 1014 10 16.0934 0 0
2:15 am 02:15 Clear 27 -2.9 19 -7.2 73 73 SSW 6 9 29.94 1014 10 16.0934 0 0
2:35 am 02:35 Clear 25 -3.9 19 -7.4 77 77 SSE 6 9 29.94 1014 10 16.0934 0 0
2:55 am 02:55 Clear 25 -4.1 19 -7.5 77 77 Calm 29.97 1015 10 16.0934 0 0
3:15 am 03:15 Clear 25 -4 18 -7.6 76 76 SSE 5 7 29.97 1015 10 16.0934 0 0
3:35 am 03:35 Clear 25 -3.7 19 -7.5 75 75 SSE 5 7 29.94 1014 10 16.0934 0 0
3:55 am 03:55 Clear 25 -4.1 18 -7.9 75 75 SSE 5 7 29.97 1015 10 16.0934 0 0
4:15 am 04:15 Clear 25 -3.8 19 -7.5 76 76 SSE 7 11 29.94 1014 10 16.0934 0 0
4:35 am 04:35 Clear 25 -4 19 -7.5 77 77 SE 7 11 29.91 1013 10 16.0934 0 0
4:55 am 04:55 Clear 24 -4.2 18 -7.6 77 77 SE 5 7 29.91 1013 10 16.0934 0 0
5:15 am 05:15 Clear 25 -4.1 19 -7.3 79 79 SSE 6 9 29.91 1013 10 16.0934 0 0
5:35 am 05:35 Clear 27 -3 20 -6.8 75 75 SE 5 7 29.94 1014 10 16.0934 0 0
5:55 am 05:55 Clear 28 -2.5 21 -6.3 75 75 SSE 5 7 29.94 1014 10 16.0934 0 0
6:15 am 06:15 Clear 28 -2.2 21 -6.2 74 74 S 7 11 29.94 1014 10 16.0934 0 0
6:35 am 06:35 Mostly Cloudy 29 -1.7 21 -6.3 71 71 S 9 15 29.94 1014 10 16.0934 0 0
6:55 am 06:55 Cloudy 29 -1.5 21 -6.3 70 70 SE 6 9 29.94 1014 10 16.0934 0 0
7:15 am 07:15 Cloudy with Light Snow 30 -1.2 22 -5.8 71 71 SE 7 11 29.94 1014 7 11.26538 0 0
7:35 am 07:35 Cloudy with Light Snow 31 -0.7 22 -5.6 70 70 SSE 3 6 29.91 1013 10 16.0934 0 0
7:55 am 07:55 Cloudy with Light Wintry Mix 31 -0.3 25 -3.7 78 78 SSE 7 11 29.91 1013 10 16.0934 0 0
8:15 am 08:15 Cloudy with Light Wintry Mix 32 -0.2 26 -3.4 79 79 SE 6 9 29.88 1012 10 16.0934 0 0
8:35 am 08:35 Cloudy 32 0 27 -2.8 82 82 SE 7 11 29.88 1012 10 16.0934 0 0
8:55 am 08:55 Cloudy 32 0 25 -3.9 75 75 SE 7 11 29.88 1012 10 16.0934 0 0
9:15 am 09:15 Cloudy 32 0 24 -4.3 73 73 SSE 6 9 29.91 1013 10 16.0934 0 0
9:35 am 09:35 Cloudy 32 0.2 24 -4.5 71 71 S 7 11 29.91 1013 10 16.0934 0 0
9:55 am 09:55 Cloudy 33 0.4 23 -4.8 68 68 S 10 17 29.91 1013 10 16.0934 0 0
10:15 am 10:15 Cloudy 33 0.7 23 -4.9 66 66 S 10 17 29.91 1013 10 16.0934 0 0
10:35 am 10:35 Cloudy 34 1.1 23 -4.9 65 65 S 9 15 29.91 1013 10 16.0934 0 0
10:55 am 10:55 Cloudy 35 1.5 23 -4.9 63 63 S 10 17 29.91 1013 10 16.0934 0 0
11:15 am 11:15 Cloudy 35 1.7 24 -4.5 64 64 SE 8 13 29.91 1013 10 16.0934 0 0
11:35 am 11:35 Cloudy 35 1.7 24 -4.5 64 64 SSE 9 15 29.85 1011 10 16.0934 0 0
11:55 am 11:55 Cloudy 36 2 23 -4.9 61 61 SSE 12 19 29.85 1011 10 16.0934 0 0
12:15 pm 12:15 Cloudy 36 2.4 24 -4.7 60 60 SE 10 17 29.83 1010 10 16.0934 0 0
12:35 pm 12:35 Cloudy 37 2.5 23 -4.8 59 59 SE 14 22 29.83 1010 10 16.0934 0 0
12:55 pm 12:55 Cloudy 37 2.5 23 -5 58 58 SSE 10 17 29.83 1010 10 16.0934 0 0
1:15 pm 13:15 Cloudy 37 2.6 23 -4.9 58 58 SSE 13 20 29.8 1009 10 16.0934 0 0
1:35 pm 13:35 Cloudy 37 2.8 22 -5.7 54 54 SSE 14 22 29.8 1009 10 16.0934 0 0
1:55 pm 13:55 Cloudy 37 2.8 21 -5.9 53 53 SSE 14 22 29.8 1009 10 16.0934 0 0
2:15 pm 14:15 Cloudy 37 3 21 -5.9 52 52 SE 10 17 29.77 1008 10 16.0934 0 0
2:35 pm 14:35 Cloudy 38 3.1 21 -6.2 51 51 SE 12 19 29.77 1008 10 16.0934 0 0
2:55 pm 14:55 Cloudy 38 3.2 20 -6.4 50 50 SE 12 19 29.77 1008 10 16.0934 0 0
3:15 pm 15:15 Cloudy 38 3.2 21 -6.3 50 50 ESE 10 17 29.77 1008 10 16.0934 0 0
3:35 pm 15:35 Cloudy 38 3.1 21 -6 52 52 SE 13 20 29.77 1008 10 16.0934 0 0
3:55 pm 15:55 Cloudy 37 3 21 -5.9 52 52 ESE 10 17 29.77 1008 10 16.0934 0 0
4:15 pm 16:15 Cloudy 37 3 22 -5.4 54 54 ESE 10 17 29.77 1008 10 16.0934 0 0
4:35 pm 16:35 Cloudy 37 2.6 22 -5.5 56 56 SE 9 15 29.77 1008 10 16.0934 0 0
4:55 pm 16:55 Cloudy 37 2.5 23 -5.1 58 58 SE 7 11 29.8 1009 10 16.0934 0 0
5:15 pm 17:15 Cloudy 37 2.5 23 -5 58 58 ESE 8 13 29.8 1009 10 16.0934 0 0
5:35 pm 17:35 Mostly Cloudy 35 1.9 23 -4.9 61 61 ESE 7 11 29.8 1009 10 16.0934 0 0
5:55 pm 17:55 Clear 32 0 20 -6.5 62 62 S 7 11 29.91 1013 10 16.0934 0 0
6:15 pm 18:15 Cloudy 36 2.1 24 -4.6 62 62 ESE 7 11 29.8 1009 10 16.0934 0 0
6:35 pm 18:35 Cloudy 35 1.7 24 -4.5 64 64 E 10 17 29.8 1009 10 16.0934 0 0
6:55 pm 18:55 Cloudy 35 1.5 24 -4.5 65 65 ESE 12 19 29.8 1009 10 16.0934 0 0
7:15 pm 19:15 Cloudy 34 1.1 24 -4.6 66 66 ESE 10 17 29.83 1010 10 16.0934 0 0
7:35 pm 19:35 Partly Cloudy 33 0.3 24 -4.6 70 70 E 9 15 29.83 1010 10 16.0934 0 0
7:55 pm 19:55 Clear 32 0 24 -4.6 71 71 E 10 17 29.83 1010 10 16.0934 0 0
8:15 pm 20:15 Partly Cloudy 32 -0.1 24 -4.7 71 71 E 10 17 29.83 1010 10 16.0934 0 0
8:35 pm 20:35 Clear 31 -0.5 23 -4.8 73 73 ESE 10 17 29.83 1010 10 16.0934 0 0
8:55 pm 20:55 Clear 30 -0.9 23 -5 74 74 E 10 17 29.83 1010 10 16.0934 0 0
9:15 pm 21:15 Clear 30 -1 23 -5 75 75 E 10 17 29.83 1010 10 16.0934 0 0
9:35 pm 21:35 Clear 29 -1.6 22 -5.3 76 76 E 6 9 29.83 1010 10 16.0934 0 0
9:55 pm 21:55 Clear 28 -2.4 22 -5.6 79 79 E 5 7 29.88 1012 10 16.0934 0 0
10:15 pm 22:15 Clear 27 -2.8 21 -6 79 79 E 7 11 29.85 1011 10 16.0934 0 0
10:35 pm 22:35 Clear 28 -2.3 22 -5.5 79 79 ESE 7 11 29.85 1011 10 16.0934 0 0
10:55 pm 22:55 Clear 28 -2 22 -5.6 77 77 E 6 9 29.85 1011 10 16.0934 0 0
11:15 pm 23:15 Mostly Cloudy 29 -1.6 22 -5.4 76 76 ESE 6 9 29.83 1010 10 16.0934 0 0
11:35 pm 23:35 Partly Cloudy 29 -1.8 22 -5.5 76 76 ESE 6 9 29.83 1010 10 16.0934 0 0
11:55 pm 23:55 Clear 29 -1.9 23 -5.1 79 79 ESE 7 11 29.85 1011 10 16.0934 0 0

Powered by AerisWeather